GW0058 Weather Reports


Display with metric or nautical units.
time (UTC)temp
F
wind
direction
speed
MPH
gust
MPH
rain 1hr
in
rain 24hr
in
rain mn
in
humidity
%
barometer
mb
20260507051046 60 230 2.0 8.0 0.00 0.00 0.00 84 1015.8
20260507050545 60 44 2.0 8.0 0.00 0.00 0.00 84 1015.7
20260507050100 60 0 1.0 6.0 0.00 0.00 0.00 85 1015.7
20260507045546 60 59 0.0 4.0 0.00 0.00 0.00 85 1015.6
20260507045046 61 40 1.0 9.0 0.00 0.00 0.00 84 1015.5
20260507044557 61 32 1.0 9.0 0.00 0.00 0.00 84 1015.4
20260507044045 61 92 1.0 9.0 0.00 0.00 0.00 84 1015.6
20260507043547 61 157 1.0 4.0 0.00 0.00 0.00 84 1015.4
20260507043107 61 39 1.0 8.0 0.00 0.00 0.00 84 1015.4
20260507042545 61 291 2.0 10.0 0.00 0.00 0.00 84 1015.5
20260507042046 61 277 1.0 11.0 0.00 0.00 0.00 84 1015.6
20260507041604 61 11 3.0 11.0 0.00 0.00 0.00 84 1015.4
20260507041050 61 73 2.0 9.0 0.00 0.00 0.00 84 1015.3
20260507040547 61 36 2.0 7.0 0.00 0.00 0.00 84 1015.2
20260507040056 61 344 1.0 10.0 0.00 0.00 0.00 84 1015.3
20260507035546 61 173 3.0 10.0 0.00 0.00 0.00 84 1015.1
20260507035046 61 355 3.0 10.0 0.00 0.00 0.00 84 1015.0
20260507034608 61 31 2.0 8.0 0.00 0.00 0.00 84 1015.1
20260507034045 61 28 3.0 8.0 0.00 0.00 0.00 84 1015.0
20260507033547 61 355 2.0 8.0 0.00 0.00 0.00 84 1015.2
20260507033055 61 283 3.0 8.0 0.00 0.00 0.00 84 1015.3
20260507032550 61 334 3.0 8.0 0.00 0.00 0.00 84 1015.1
20260507032045 61 304 2.0 9.0 0.00 0.00 0.00 84 1015.1
20260507031602 61 360 2.0 9.0 0.00 0.00 0.00 84 1015.1
20260507031048 61 355 1.0 8.0 0.00 0.00 0.00 84 1015.0
20260507030549 61 343 2.0 9.0 0.00 0.00 0.00 84 1015.1
20260507030101 61 323 3.0 9.0 0.00 0.00 0.00 84 1015.1
20260507025547 61 27 3.0 9.0 0.00 0.00 0.00 84 1015.1
20260507025050 61 5 3.0 10.0 0.00 0.00 0.00 84 1015.1
20260507024557 61 348 2.0 10.0 0.00 0.00 0.00 84 1014.8
20260507024050 61 35 3.0 10.0 0.00 0.00 0.00 84 1014.7
20260507023550 61 336 2.0 10.0 0.00 0.00 0.00 84 1014.7
20260507023052 61 332 2.0 10.0 0.00 0.00 0.00 84 1014.9
20260507022550 61 313 2.0 9.0 0.00 0.00 0.00 84 1014.6
20260507022051 61 340 3.0 6.0 0.00 0.00 0.00 84 1014.7
20260507021608 61 265 1.0 5.0 0.00 0.00 0.00 84 1014.6
20260507021050 61 304 2.0 5.0 0.00 0.00 0.00 84 1014.6
20260507020548 61 320 1.0 7.0 0.00 0.00 0.00 84 1014.5
20260507020109 61 0 1.0 7.0 0.00 0.00 0.00 84 1014.3
20260507015554 61 47 0.0 6.0 0.00 0.00 0.00 84 1014.1
20260507015050 61 324 2.0 7.0 0.00 0.00 0.00 84 1013.9
20260507014618 61 5 2.0 7.0 0.00 0.00 0.00 84 1014.0
20260507014050 61 322 1.0 5.0 0.00 0.00 0.00 84 1014.0
20260507013551 61 305 2.0 8.0 0.00 0.00 0.00 84 1014.0
20260507013050 61 289 2.0 11.0 0.00 0.00 0.00 83 1013.9
20260507012549 61 360 1.0 11.0 0.00 0.00 0.00 83 1013.8
20260507012050 61 310 3.0 11.0 0.00 0.00 0.00 83 1013.7
20260507011557 61 340 3.0 9.0 0.00 0.00 0.00 83 1013.7
20260507011050 62 257 3.0 9.0 0.00 0.00 0.00 83 1013.7
20260507010551 62 300 1.0 7.0 0.00 0.00 0.00 83 1013.5
20260507010052 62 298 3.0 10.0 0.00 0.00 0.00 83 1013.7
20260507005551 62 281 3.0 10.0 0.00 0.00 0.00 83 1013.6
20260507005052 62 309 2.0 9.0 0.00 0.00 0.00 83 1013.5
20260507004553 62 347 3.0 9.0 0.00 0.00 0.00 83 1013.5
20260507004050 62 295 4.0 9.0 0.00 0.00 0.00 83 1013.1
20260507003549 62 301 2.0 9.0 0.00 0.00 0.00 83 1013.3
20260507003053 62 336 3.0 10.0 0.00 0.00 0.00 82 1013.0
20260507002549 62 310 3.0 11.0 0.00 0.00 0.00 82 1013.3
20260507002048 62 277 4.0 11.0 0.00 0.00 0.00 82 1013.4
20260507001600 63 13 3.0 9.0 0.00 0.00 0.00 81 1013.1
20260507001049 63 303 2.0 11.0 0.00 0.00 0.00 81 1013.1
20260507000549 63 360 2.0 11.0 0.00 0.00 0.00 81 1013.1
20260507000111 63 337 3.0 11.0 0.00 0.00 0.00 81 1013.2
20260506235551 63 291 4.0 9.0 0.00 0.00 0.00 81 1012.9
20260506235051 63 340 3.0 14.0 0.00 0.00 0.00 81 1012.8
20260506234610 63 305 4.0 14.0 0.00 0.00 0.00 80 1012.8
20260506234051 64 34 3.0 8.0 0.00 0.00 0.00 80 1012.8
20260506233550 64 16 2.0 11.0 0.00 0.00 0.00 80 1012.8
20260506233057 64 314 3.0 11.0 0.00 0.00 0.00 80 1012.7
20260506232549 64 309 4.0 10.0 0.00 0.00 0.00 80 1012.8
20260506232050 64 355 4.0 10.0 0.00 0.00 0.00 80 1012.8
20260506231551 64 13 2.0 8.0 0.00 0.00 0.00 80 1012.4
20260506231049 64 338 3.0 10.0 0.00 0.00 0.00 80 1012.4
20260506230551 64 319 5.0 12.0 0.00 0.00 0.00 79 1012.4
20260506230101 64 102 3.0 12.0 0.00 0.00 0.00 79 1012.3
20260506225550 64 249 6.0 12.0 0.00 0.00 0.00 78 1012.4
20260506225050 65 272 5.0 12.0 0.00 0.00 0.00 78 1012.4
20260506224554 65 309 5.0 12.0 0.00 0.00 0.00 78 1012.5
20260506224050 65 15 4.0 11.0 0.00 0.00 0.00 79 1012.6
20260506223550 65 286 4.0 12.0 0.00 0.00 0.00 79 1012.6
20260506223058 64 281 5.0 12.0 0.00 0.00 0.00 80 1012.3
20260506222554 64 306 4.0 11.0 0.00 0.00 0.00 80 1012.3
20260506222050 65 305 3.0 11.0 0.00 0.00 0.00 80 1012.4
20260506221601 64 288 5.0 11.0 0.00 0.00 0.00 79 1012.4
20260506221050 65 297 3.0 13.0 0.00 0.00 0.00 79 1012.3
20260506220550 66 350 4.0 13.0 0.00 0.00 0.00 77 1012.3
20260506220053 67 311 3.0 11.0 0.00 0.00 0.00 77 1012.3
20260506215546 68 275 4.0 11.0 0.00 0.00 0.00 75 1012.3
20260506215049 69 60 3.0 13.0 0.00 0.00 0.00 74 1012.3
20260506214548 68 317 5.0 13.0 0.00 0.00 0.00 75 1012.3
20260506214050 68 352 4.0 10.0 0.00 0.00 0.00 74 1012.2
20260506213555 71 311 3.0 13.0 0.00 0.00 0.00 71 1012.0
20260506213055 71 315 3.0 13.0 0.00 0.00 0.00 72 1012.0
20260506212550 72 248 4.0 13.0 0.00 0.00 0.00 73 1011.9
20260506212050 71 328 3.0 12.0 0.00 0.00 0.00 72 1012.1
20260506211553 71 5 5.0 13.0 0.00 0.00 0.00 73 1012.0
20260506211051 72 271 5.0 13.0 0.00 0.00 0.00 70 1012.1
20260506210550 72 342 6.0 13.0 0.00 0.00 0.00 71 1012.0
20260506210057 73 294 5.0 16.0 0.00 0.00 0.00 71 1012.1
20260506205549 73 16 6.0 16.0 0.00 0.00 0.00 71 1012.0
20260506205050 73 15 6.0 15.0 0.00 0.00 0.00 73 1011.8
20260506204559 72 62 6.0 15.0 0.00 0.00 0.00 72 1011.9
20260506204049 73 335 6.0 13.0 0.00 0.00 0.00 72 1012.0
20260506203550 73 355 6.0 14.0 0.00 0.00 0.00 70 1012.0
20260506203056 74 296 5.0 14.0 0.00 0.00 0.00 70 1012.0
20260506202550 75 249 4.0 11.0 0.00 0.00 0.00 71 1011.9
20260506202048 76 305 2.0 12.0 0.00 0.00 0.00 71 1011.9
20260506201553 74 315 4.0 12.0 0.00 0.00 0.00 72 1012.0
20260506201048 74 94 5.0 15.0 0.00 0.00 0.00 73 1012.2
20260506200550 74 320 7.0 15.0 0.00 0.00 0.00 72 1012.2
20260506200054 74 296 7.0 14.0 0.00 0.00 0.00 73 1012.1
20260506195550 73 5 4.0 13.0 0.00 0.00 0.00 76 1012.1
20260506195050 73 319 5.0 13.0 0.00 0.00 0.00 76 1012.0
20260506194549 73 281 6.0 13.0 0.00 0.00 0.00 75 1012.0
20260506194050 75 344 5.0 13.0 0.00 0.00 0.00 74 1011.8
20260506193547 77 18 4.0 11.0 0.00 0.00 0.00 72 1011.7
20260506193053 80 298 1.0 5.0 0.00 0.00 0.00 73 1011.6
20260506192550 80 349 1.0 6.0 0.00 0.00 0.00 72 1011.5
20260506192050 81 9 0.0 7.0 0.00 0.00 0.00 71 1011.6
20260506191558 82 59 2.0 7.0 0.00 0.00 0.00 68 1011.5
20260506191053 83 69 1.0 7.0 0.00 0.00 0.00 70 1011.6
20260506190548 82 290 2.0 7.0 0.00 0.00 0.00 69 1011.7
20260506190055 81 360 2.0 4.0 0.00 0.00 0.00 71 1011.8
20260506185550 79 287 1.0 4.0 0.00 0.00 0.00 73 1011.8
20260506185050 79 51 1.0 5.0 0.00 0.00 0.00 73 1012.0
20260506184556 81 5 2.0 5.0 0.00 0.00 0.00 70 1012.0
20260506184050 82 55 1.0 8.0 0.00 0.00 0.00 70 1012.0
20260506183547 80 331 1.0 8.0 0.00 0.00 0.00 73 1011.8
20260506183055 80 140 3.0 8.0 0.00 0.00 0.00 71 1011.8
20260506182550 81 169 2.0 8.0 0.00 0.00 0.00 72 1011.9
20260506182050 80 100 1.0 5.0 0.00 0.00 0.00 72 1011.9
20260506181602 79 133 1.0 6.0 0.00 0.00 0.00 75 1011.9
20260506181050 79 167 2.0 6.0 0.00 0.00 0.00 74 1012.0
20260506180554 79 0 1.0 7.0 0.00 0.00 0.00 76 1011.9
20260506180054 79 47 1.0 7.0 0.00 0.00 0.00 73 1011.9
20260506175550 79 77 1.0 4.0 0.00 0.00 0.00 74 1011.9
20260506175052 78 103 0.0 5.0 0.00 0.00 0.00 75 1011.9
20260506174553 78 175 0.0 5.0 0.00 0.00 0.00 78 1011.9
20260506174050 77 107 1.0 4.0 0.00 0.00 0.00 74 1012.0
20260506173550 77 285 2.0 5.0 0.00 0.00 0.00 77 1012.0
20260506173120 76 14 2.0 5.0 0.00 0.00 0.00 75 1011.9
20260506172549 76 19 1.0 4.0 0.00 0.00 0.00 76 1012.1
20260506172053 75 0 1.0 4.0 0.00 0.00 0.00 79 1012.3
20260506171557 73 117 2.0 9.0 0.00 0.00 0.00 81 1012.2
20260506171050 72 254 1.0 9.0 0.00 0.00 0.00 84 1012.4
20260506170550 70 40 1.0 4.0 0.00 0.00 0.00 84 1012.4
20260506170105 70 69 1.0 4.0 0.00 0.00 0.00 84 1012.5
20260506165547 70 50 1.0 6.0 0.00 0.00 0.00 85 1012.5
20260506165050 69 0 1.0 9.0 0.00 0.00 0.00 87 1012.6
20260506164553 68 0 1.0 9.0 0.00 0.00 0.00 87 1012.6
20260506164050 68 11 2.0 8.0 0.00 0.00 0.00 87 1012.8
20260506163550 68 64 2.0 9.0 0.00 0.00 0.00 87 1012.9
20260506163059 68 11 2.0 9.0 0.00 0.00 0.00 85 1013.0
20260506162548 68 32 3.0 9.0 0.00 0.00 0.00 84 1013.0
20260506162050 69 35 3.0 13.0 0.00 0.00 0.00 83 1013.0
20260506161553 73 274 5.0 13.0 0.00 0.00 0.00 77 1013.0
20260506161050 76 28 0.0 2.0 0.00 0.00 0.00 86 1012.8
20260506160550 76 0 0.0 2.0 0.00 0.00 0.00 87 1012.7
20260506160052 76 37 0.0 3.0 0.00 0.00 0.00 86 1012.8
20260506155553 76 360 0.0 3.0 0.00 0.00 0.00 88 1012.7
20260506155053 76 0 0.0 2.0 0.00 0.00 0.00 88 1012.8
20260506154608 75 0 0.0 2.0 0.00 0.00 0.00 88 1012.6
20260506154051 75 0 0.0 2.0 0.00 0.00 0.00 89 1012.5
20260506153550 75 53 0.0 3.0 0.00 0.00 0.00 88 1012.5
20260506153054 75 0 0.0 3.0 0.00 0.00 0.00 88 1012.4
20260506152550 75 0 0.0 2.0 0.00 0.00 0.00 89 1012.1
20260506152048 75 0 0.0 3.0 0.00 0.00 0.00 89 1012.0
20260506151555 75 144 1.0 3.0 0.00 0.00 0.00 89 1011.7
20260506151050 75 0 0.0 2.0 0.00 0.00 0.00 89 1011.6
20260506150550 75 0 1.0 3.0 0.00 0.00 0.00 89 1011.4
20260506150051 75 0 0.0 3.0 0.00 0.00 0.00 90 1011.4
20260506145547 74 146 0.0 3.0 0.00 0.00 0.00 90 1011.4
20260506145047 74 0 0.0 3.0 0.00 0.00 0.00 90 1011.4
20260506144556 74 0 0.0 3.0 0.00 0.00 0.00 90 1011.4
20260506144050 74 0 0.0 4.0 0.00 0.00 0.00 90 1011.5
20260506143546 74 60 1.0 4.0 0.00 0.00 0.00 91 1011.2
20260506143051 74 140 0.0 3.0 0.00 0.00 0.00 91 1011.2
20260506142546 74 0 0.0 2.0 0.00 0.00 0.00 91 1011.1
20260506142045 74 0 0.0 1.0 0.00 0.00 0.00 91 1011.3
20260506141555 74 0 0.0 0.0 0.00 0.00 0.00 91 1011.4
20260506141051 74 0 0.0 1.0 0.00 0.00 0.00 91 1011.3
20260506140547 74 0 0.0 1.0 0.00 0.00 0.00 91 1011.3
20260506140053 74 24 0.0 3.0 0.00 0.00 0.00 91 1011.3
20260506135546 74 0 0.0 6.0 0.00 0.00 0.00 91 1011.0
20260506135046 74 63 0.0 6.0 0.00 0.00 0.00 91 1010.6
20260506134547 74 0 1.0 6.0 0.00 0.00 0.00 92 1010.4
20260506134050 74 156 0.0 4.0 0.00 0.00 0.00 92 1010.3
20260506133548 74 0 0.0 5.0 0.00 0.00 0.00 92 1010.3
20260506133109 73 59 2.0 5.0 0.00 0.00 0.00 92 1010.1
20260506132547 73 111 2.0 5.0 0.00 0.00 0.00 92 1010.2
20260506132047 73 116 1.0 6.0 0.00 0.00 0.00 92 1010.1
20260506131553 73 0 0.0 6.0 0.00 0.00 0.00 92 1010.2
20260506131046 73 109 1.0 3.0 0.00 0.00 0.00 92 1010.2
20260506130546 73 15 0.0 4.0 0.00 0.00 0.00 92 1010.0
20260506130119 73 0 1.0 4.0 0.00 0.00 0.00 92 1010.0
20260506125545 73 84 0.0 4.0 0.00 0.00 0.00 92 1009.9
20260506125046 73 0 0.0 2.0 0.00 0.00 0.00 92 1010.0
20260506124550 73 0 0.0 2.0 0.00 0.00 0.00 92 1009.8
20260506124045 73 0 0.0 2.0 0.00 0.00 0.00 92 1009.8
20260506123547 73 142 0.0 2.0 0.00 0.00 0.00 92 1009.9
20260506123053 73 149 0.0 2.0 0.00 0.00 0.00 92 1009.9
20260506122545 73 0 0.0 2.0 0.00 0.00 0.00 92 1009.9
20260506122045 73 0 0.0 2.0 0.00 0.00 0.00 92 1009.9
20260506121554 73 0 0.0 1.0 0.00 0.00 0.00 92 1009.9
20260506121048 73 0 0.0 1.0 0.00 0.00 0.00 92 1010.0
20260506120545 73 0 0.0 1.0 0.00 0.00 0.00 92 1009.9
20260506120052 73 0 0.0 1.0 0.00 0.00 0.00 91 1009.9
20260506115546 73 0 0.0 1.0 0.00 0.00 0.00 91 1009.9
20260506115047 73 0 0.0 2.0 0.00 0.00 0.00 91 1009.8
20260506114627 73 0 0.0 2.0 0.00 0.00 0.00 91 1009.7
20260506114047 73 0 0.0 2.0 0.00 0.00 0.00 91 1009.6
20260506113549 73 0 0.0 2.0 0.00 0.00 0.00 91 1009.7
20260506113053 73 0 0.0 2.0 0.00 0.00 0.00 91 1009.7
20260506112548 73 0 0.0 3.0 0.00 0.00 0.00 91 1009.7
20260506112053 73 0 0.0 4.0 0.00 0.00 0.00 91 1009.7
20260506111552 73 182 1.0 4.0 0.00 0.00 0.00 91 1009.5
20260506111050 73 111 1.0 4.0 0.00 0.00 0.00 91 1009.6
20260506110550 73 165 1.0 4.0 0.00 0.00 0.00 91 1009.6
20260506110058 73 170 1.0 4.0 0.00 0.00 0.00 91 1009.5
20260506105548 73 161 1.0 5.0 0.00 0.00 0.00 91 1009.5
20260506105050 73 188 1.0 5.0 0.00 0.00 0.00 91 1009.5
20260506104618 73 177 1.0 5.0 0.00 0.00 0.00 91 1009.5
20260506104048 73 119 1.0 7.0 0.00 0.00 0.00 91 1009.5
20260506103549 73 179 3.0 7.0 0.00 0.00 0.00 91 1009.5
20260506103052 73 0 1.0 4.0 0.00 0.00 0.00 91 1009.5
20260506102551 73 181 2.0 5.0 0.00 0.00 0.00 91 1009.5
20260506102051 73 111 2.0 5.0 0.00 0.00 0.00 91 1009.3
20260506101551 73 154 2.0 7.0 0.00 0.00 0.00 91 1009.4
20260506101050 73 186 3.0 7.0 0.00 0.00 0.00 90 1009.3
20260506100550 74 147 2.0 6.0 0.00 0.00 0.00 90 1009.4
20260506100053 74 166 2.0 5.0 0.00 0.00 0.00 90 1009.4
20260506095554 74 181 1.0 6.0 0.00 0.00 0.00 90 1009.3
20260506095050 74 101 1.0 6.0 0.00 0.00 0.00 90 1009.3
20260506094554 74 158 3.0 7.0 0.00 0.00 0.00 90 1009.3
20260506094046 74 196 3.0 8.0 0.00 0.00 0.00 90 1009.2
20260506093550 74 172 3.0 8.0 0.00 0.00 0.00 90 1009.1
20260506093049 74 170 3.0 8.0 0.00 0.00 0.00 90 1009.0
20260506092548 74 132 2.0 7.0 0.00 0.00 0.00 90 1008.9
20260506092050 74 165 3.0 7.0 0.00 0.00 0.00 90 1009.0
20260506091556 74 190 3.0 10.0 0.00 0.00 0.00 90 1009.0
20260506091050 74 159 4.0 10.0 0.00 0.00 0.00 90 1009.0
20260506090549 74 174 2.0 7.0 0.00 0.00 0.00 90 1009.0
20260506090052 74 157 3.0 7.0 0.00 0.00 0.00 90 1008.9
20260506085550 74 177 3.0 8.0 0.00 0.00 0.00 90 1008.9
20260506085050 74 162 2.0 8.0 0.00 0.00 0.00 90 1009.0
20260506084550 74 178 2.0 8.0 0.00 0.00 0.00 90 1008.9
20260506084050 74 144 2.0 7.0 0.00 0.00 0.00 90 1008.8
20260506083550 74 178 3.0 9.0 0.00 0.00 0.00 90 1009.0
20260506083055 74 204 4.0 9.0 0.00 0.00 0.00 90 1009.0
20260506082547 74 156 3.0 11.0 0.00 0.00 0.00 90 1008.9
20260506082050 74 207 4.0 11.0 0.00 0.00 0.00 90 1009.0
20260506081600 74 169 4.0 8.0 0.00 0.00 0.00 90 1008.9
20260506081050 74 167 4.0 9.0 0.00 0.00 0.00 90 1008.9
20260506080550 74 188 3.0 9.0 0.00 0.00 0.00 90 1009.1
20260506073053 74 139 4.0 9.0 0.00 0.00 0.00 90 1009.2
20260506072552 74 158 4.0 8.0 0.00 0.00 0.00 89 1009.3
20260506072050 74 149 2.0 7.0 0.00 0.00 0.00 89 1009.5
20260506071610 74 146 2.0 8.0 0.00 0.00 0.00 89 1009.6
20260506071047 74 161 3.0 14.0 0.00 0.00 0.00 89 1009.5
20260506070550 74 184 5.0 14.0 0.00 0.00 0.00 89 1009.5
20260506062050 74 161 4.0 14.0 0.00 0.00 0.00 89 1009.5
20260506061558 74 168 6.0 14.0 0.00 0.00 0.00 89 1009.6
20260506061050 74 166 5.0 13.0 0.00 0.00 0.00 89 1009.6
20260506060553 74 162 4.0 10.0 0.00 0.00 0.00 89 1009.6